Location: Livorno
(43.5500°N, 10.3170°E)
Time: 19:14:01
(UTC+01:00)

Envisat - Pass Details

Date: 05 November 2020
Orbit: 764 x 766 km, 98.1° (Epoch: 05 December)

Event Time Altitude Azimuth Distance (km) Brightness Sun altitude
Rises 05:44:56 0° 20° (NNE) 3,241 6.4 -13.9°
Reaches altitude 10° 05:47:23 10° 27° (NNE) 2,310 5.7 -13.5°
Maximum altitude 05:52:11 41° 98° (E) 1,108 4.5 -12.6°
Drops below altitude 10° 05:56:56 10° 168° (SSE) 2,293 5.8 -11.8°
Sets 05:59:21 0° 175° (S) 3,214 6.4 -11.4°
